• In Netherlands
  • List of Countries
  • For 7 days
  • Water Temperature
  • Satellite Maps
  • Weather Map
  • Weather Widgets
  • user-avatar
    Login

    Hourly Weather La Massana

    Today, 24 November, Friday

    Time Temperature Precipitation Wind Pressure Humidity
    00:00 +2°C° 0 mm 1 mps 610 mmHg 71%
    01:00 +2°C° 0 mm 1 mps 610 mmHg 71%
    02:00 +2°C° 0 mm 1 mps 610 mmHg 72%
    03:00 +2°C° 0 mm 1 mps 610 mmHg 72%
    04:00 +2°C° 0 mm 1 mps 610 mmHg 71%
    05:00 +3°C° 0 mm 1 mps 610 mmHg 69%
    06:00 +3°C° 0 mm 1 mps 610 mmHg 68%
    07:00 +3°C° 0 mm 2 mps 611 mmHg 65%
    08:00 +4°C° 0 mm 2 mps 611 mmHg 63%
    09:00 +5°C° 0 mm 2 mps 612 mmHg 60%
    10:00 +6°C° 0 mm 2 mps 612 mmHg 59%
    11:00 +6°C° 0 mm 2 mps 612 mmHg 58%
    12:00 +7°C° 0 mm 2 mps 612 mmHg 57%
    13:00 +7°C° 0 mm 2 mps 612 mmHg 60%
    14:00 +7°C° 0 mm 2 mps 611 mmHg 64%
    15:00 +6°C° 0 mm 2 mps 611 mmHg 67%
    16:00 +5°C° 0 mm 2 mps 610 mmHg 72%
    17:00 +3°C° 0 mm 2 mps 609 mmHg 78%
    18:00 +3°C° 0 mm 1 mps 609 mmHg 83%
    19:00 +2°C° 0 mm 2 mps 609 mmHg 80%
    20:00 +2°C° 0 mm 2 mps 609 mmHg 76%
    21:00 +2°C° 0 mm 2 mps 609 mmHg 72%
    22:00 +2°C° 0.2 mm 2 mps 609 mmHg 77%
    23:00 +2°C° 0.2 mm 2 mps 609 mmHg 81%

    Tomorrow, 25 November, Saturday

    Time Temperature Precipitation Wind Pressure Humidity
    00:00 +3°C° 0.2 mm 2 mps 609 mmHg 85%
    01:00 +2°C° 0.1 mm 2 mps 608 mmHg 87%
    02:00 +2°C° 0.1 mm 2 mps 608 mmHg 88%
    03:00 +2°C° 0.1 mm 2 mps 608 mmHg 90%
    04:00 +2°C° 0.8 mm 2 mps 608 mmHg 91%
    05:00 +1°C° 0.8 mm 2 mps 608 mmHg 93%
    06:00 0°C° 0.8 mm 3 mps 608 mmHg 94%
    07:00 0°C° 0.1 mm 3 mps 609 mmHg 90%
    08:00 +1°C° 0.1 mm 3 mps 610 mmHg 86%
    09:00 +1°C° 0.1 mm 3 mps 610 mmHg 82%
    10:00 +2°C° 0 mm 3 mps 611 mmHg 76%
    11:00 +2°C° 0 mm 3 mps 611 mmHg 70%
    12:00 +3°C° 0 mm 3 mps 612 mmHg 64%
    13:00 +3°C° 0 mm 4 mps 612 mmHg 63%
    14:00 +1°C° 0 mm 4 mps 612 mmHg 62%
    15:00 +1°C° 0 mm 4 mps 612 mmHg 61%
    16:00 0°C° 0 mm 3 mps 611 mmHg 67%
    17:00 -2°C° 0 mm 3 mps 611 mmHg 73%
    18:00 -5°C° 0 mm 3 mps 611 mmHg 79%
    19:00 -5°C° 0 mm 3 mps 611 mmHg 78%
    20:00 -5°C° 0 mm 3 mps 611 mmHg 77%
    21:00 -6°C° 0 mm 3 mps 612 mmHg 76%
    22:00 -6°C° 0 mm 3 mps 612 mmHg 75%
    23:00 -6°C° 0 mm 3 mps 612 mmHg 75%

    Day after tomorrow, 26 November, Sunday

    Time Temperature Precipitation Wind Pressure Humidity
    00:00 -7°C° 0 mm 3 mps 612 mmHg 74%
    01:00 -7°C° 0 mm 3 mps 612 mmHg 74%
    02:00 -7°C° 0 mm 3 mps 612 mmHg 75%
    03:00 -8°C° 0 mm 3 mps 612 mmHg 75%
    04:00 -8°C° 0 mm 3 mps 612 mmHg 74%
    05:00 -8°C° 0 mm 3 mps 612 mmHg 73%
    06:00 -8°C° 0 mm 3 mps 612 mmHg 73%
    07:00 -7°C° 0 mm 3 mps 613 mmHg 66%
    08:00 -6°C° 0 mm 3 mps 614 mmHg 59%
    09:00 -4°C° 0 mm 2 mps 615 mmHg 52%
    10:00 -4°C° 0 mm 3 mps 615 mmHg 47%
    11:00 -1°C° 0 mm 3 mps 616 mmHg 42%
    12:00 0°C° 0 mm 3 mps 616 mmHg 38%
    13:00 -1°C° 0 mm 3 mps 616 mmHg 40%
    14:00 -1°C° 0 mm 3 mps 616 mmHg 41%
    15:00 -1°C° 0 mm 2 mps 615 mmHg 43%
    16:00 -3°C° 0 mm 2 mps 615 mmHg 51%
    17:00 -5°C° 0 mm 2 mps 614 mmHg 58%
    18:00 -6°C° 0 mm 2 mps 613 mmHg 65%
    19:00 -7°C° 0 mm 2 mps 613 mmHg 63%
    20:00 -7°C° 0 mm 2 mps 614 mmHg 61%
    21:00 -7°C° 0 mm 2 mps 614 mmHg 59%
    22:00 -6°C° 0 mm 1 mps 613 mmHg 57%
    23:00 -6°C° 0 mm 1 mps 613 mmHg 56%

    27 November, Monday

    Time Temperature Precipitation Wind Pressure Humidity
    00:00 -6°C° 0 mm 1 mps 613 mmHg 54%
    01:00 -6°C° 0 mm 1 mps 613 mmHg 52%
    02:00 -6°C° 0 mm 1 mps 613 mmHg 51%
    03:00 -6°C° 0 mm 1 mps 613 mmHg 49%
    04:00 -6°C° 0 mm 1 mps 612 mmHg 49%
    05:00 -6°C° 0 mm 1 mps 612 mmHg 48%
    06:00 -4°C° 0 mm 1 mps 612 mmHg 47%
    07:00 -3°C° 0 mm 1 mps 613 mmHg 44%
    08:00 -3°C° 0 mm 0 mps 614 mmHg 41%
    09:00 -1°C° 0 mm 0 mps 614 mmHg 38%
    10:00 0°C° 0 mm 0 mps 615 mmHg 36%
    11:00 +2°C° 0 mm 1 mps 615 mmHg 34%
    12:00 +3°C° 0 mm 1 mps 615 mmHg 32%
    13:00 +3°C° 0 mm 1 mps 614 mmHg 35%
    14:00 +2°C° 0 mm 1 mps 614 mmHg 39%
    15:00 +2°C° 0 mm 1 mps 613 mmHg 42%
    16:00 0°C° 0 mm 1 mps 612 mmHg 49%
    17:00 -2°C° 0 mm 1 mps 612 mmHg 56%
    18:00 -4°C° 0 mm 1 mps 611 mmHg 63%
    19:00 -4°C° 0 mm 1 mps 611 mmHg 62%
    20:00 -4°C° 0 mm 1 mps 611 mmHg 60%
    21:00 -4°C° 0 mm 1 mps 611 mmHg 59%
    22:00 -4°C° 0 mm 1 mps 611 mmHg 57%
    23:00 -4°C° 0 mm 1 mps 611 mmHg 55%

    28 November, Tuesday

    Time Temperature Precipitation Wind Pressure Humidity
    00:00 -4°C° 0 mm 1 mps 610 mmHg 54%
    01:00 -4°C° 0 mm 1 mps 610 mmHg 53%
    02:00 -4°C° 0 mm 1 mps 610 mmHg 51%
    03:00 -4°C° 0 mm 1 mps 609 mmHg 50%
    04:00 -4°C° 0 mm 1 mps 609 mmHg 50%
    05:00 -4°C° 0 mm 1 mps 609 mmHg 49%
    06:00 -4°C° 0 mm 1 mps 609 mmHg 48%
    07:00 -3°C° 0 mm 1 mps 609 mmHg 45%
    08:00 -2°C° 0 mm 0 mps 610 mmHg 41%
    09:00 0°C° 0 mm 0 mps 611 mmHg 38%
    10:00 +2°C° 0 mm 1 mps 611 mmHg 36%
    11:00 +3°C° 0 mm 1 mps 611 mmHg 34%
    12:00 +5°C° 0 mm 1 mps 611 mmHg 32%
    13:00 +4°C° 0 mm 1 mps 610 mmHg 36%
    14:00 +4°C° 0 mm 1 mps 609 mmHg 39%
    15:00 +3°C° 0 mm 1 mps 608 mmHg 43%
    16:00 +1°C° 0 mm 1 mps 608 mmHg 49%
    17:00 -1°C° 0 mm 1 mps 607 mmHg 56%
    18:00 -3°C° 0 mm 1 mps 606 mmHg 62%
    19:00 -3°C° 0 mm 1 mps 605 mmHg 62%
    20:00 -3°C° 0 mm 1 mps 605 mmHg 62%
    21:00 -3°C° 0 mm 1 mps 605 mmHg 62%
    22:00 -4°C° 0 mm 1 mps 605 mmHg 61%
    23:00 -4°C° 0 mm 1 mps 604 mmHg 61%

    29 November, Wednesday

    Time Temperature Precipitation Wind Pressure Humidity
    00:00 -4°C° 0 mm 1 mps 604 mmHg 60%
    01:00 -4°C° 0 mm 1 mps 603 mmHg 58%
    02:00 -4°C° 0 mm 1 mps 603 mmHg 56%
    03:00 -4°C° 0 mm 1 mps 603 mmHg 55%
    04:00 -4°C° 0 mm 1 mps 602 mmHg 55%
    05:00 -4°C° 0 mm 1 mps 602 mmHg 55%
    06:00 -4°C° 0 mm 1 mps 602 mmHg 55%
    07:00 -2°C° 0 mm 1 mps 602 mmHg 52%
    08:00 -1°C° 0 mm 1 mps 603 mmHg 50%
    09:00 +1°C° 0 mm 1 mps 604 mmHg 47%
    10:00 +2°C° 0 mm 1 mps 604 mmHg 45%
    11:00 +3°C° 0 mm 1 mps 604 mmHg 43%
    12:00 +3°C° 0 mm 2 mps 604 mmHg 42%
    13:00 +2°C° 0 mm 2 mps 604 mmHg 46%
    14:00 +2°C° 0 mm 2 mps 603 mmHg 51%
    15:00 +1°C° 0 mm 2 mps 603 mmHg 56%
    16:00 0°C° 0.1 mm 1 mps 602 mmHg 67%
    17:00 -1°C° 0.1 mm 1 mps 602 mmHg 77%
    18:00 -3°C° 0.1 mm 1 mps 601 mmHg 87%
    19:00 -3°C° 0.1 mm 1 mps 601 mmHg 87%
    20:00 -3°C° 0.1 mm 1 mps 602 mmHg 87%
    21:00 -3°C° 0.1 mm 1 mps 602 mmHg 87%
    22:00 -3°C° 0 mm 1 mps 602 mmHg 87%
    23:00 -4°C° 0 mm 1 mps 601 mmHg 87%
    Show more